| time (UTC) | temp F | wind direction | speed knots | gust knots | rain 1hr in | rain 24hr in | rain mn in | humidity % | barometer mb |
| 20260506202033 | 58 | 210 | 8.7 | 19.1 | 0.00 | 0.01 | 0.01 | 84 | 1008.2 |
| 20260506201539 | 58 | 192 | 6.1 | 21.7 | 0.00 | 0.01 | 0.01 | 84 | 1008.1 |
| 20260506201031 | 58 | 186 | 7.8 | 21.7 | 0.00 | 0.01 | 0.01 | 84 | 1008.2 |
| 20260506200534 | 59 | 217 | 5.2 | 20.9 | 0.00 | 0.01 | 0.01 | 84 | 1008.2 |
| 20260506200044 | -52 | 190 | 5.2 | 16.5 | 0.00 | 0.01 | 0.01 | 1008.2 | |
| 20260506195530 | -52 | 166 | 5.2 | 18.2 | 0.00 | 0.01 | 0.01 | 1008.3 | |
| 20260506195034 | -52 | 163 | 8.7 | 18.2 | 0.00 | 0.01 | 0.01 | 1008.4 | |
| 20260506194540 | -52 | 205 | 5.2 | 15.6 | 0.00 | 0.01 | 0.01 | 1008.5 | |
| 20260506194033 | -54 | 184 | 5.2 | 21.7 | 0.00 | 0.01 | 0.01 | 1008.4 | |
| 20260506193533 | -54 | 179 | 7.0 | 21.7 | 0.00 | 0.01 | 0.01 | 1008.5 | |
| 20260506193041 | -54 | 191 | 5.2 | 16.5 | 0.00 | 0.01 | 0.01 | 1008.7 | |
| 20260506192533 | -52 | 187 | 6.1 | 17.4 | 0.00 | 0.01 | 0.01 | 1008.8 | |
| 20260506192035 | -54 | 209 | 7.8 | 17.4 | 0.01 | 0.01 | 0.01 | 1008.9 | |
| 20260506191538 | -54 | 190 | 6.1 | 16.5 | 0.01 | 0.01 | 0.01 | 100 | 1008.9 |
| 20260506191034 | -54 | 190 | 5.2 | 17.4 | 0.01 | 0.01 | 0.01 | 1009.0 | |
| 20260506190535 | -54 | 147 | 6.1 | 19.1 | 0.01 | 0.01 | 0.01 | 1009.0 | |
| 20260506190044 | -54 | 234 | 5.2 | 19.1 | 0.01 | 0.01 | 0.01 | 1009.1 | |
| 20260506185533 | -54 | 186 | 6.1 | 15.6 | 0.01 | 0.01 | 0.01 | 1009.0 | |
| 20260506185032 | -54 | 186 | 5.2 | 15.6 | 0.01 | 0.01 | 0.01 | 1009.2 | |
| 20260506184547 | -54 | 200 | 7.0 | 15.6 | 0.01 | 0.01 | 0.01 | 1009.1 | |
| 20260506184034 | -54 | 178 | 6.1 | 14.8 | 0.01 | 0.01 | 0.01 | 1009.2 | |
| 20260506183534 | -54 | 160 | 6.1 | 14.8 | 0.01 | 0.01 | 0.01 | 1009.2 | |
| 20260506183041 | 58 | 194 | 4.3 | 14.8 | 0.01 | 0.01 | 0.01 | 84 | 1009.4 |
| 20260506182533 | 58 | 188 | 5.2 | 13.0 | 0.01 | 0.01 | 0.01 | 84 | 1009.3 |
| 20260506182034 | 59 | 189 | 6.1 | 13.9 | 0.00 | 0.00 | 0.00 | 1009.3 | |
| 20260506181539 | 59 | 180 | 7.0 | 13.9 | 0.00 | 0.00 | 0.00 | 83 | 1009.5 |
| 20260506181032 | 59 | 212 | 4.3 | 23.5 | 0.00 | 0.00 | 0.00 | 82 | 1009.5 |
| 20260506180534 | 60 | 204 | 7.0 | 23.5 | 0.00 | 0.00 | 0.00 | 82 | 1009.6 |
| 20260506180040 | 60 | 183 | 5.2 | 15.6 | 0.00 | 0.00 | 0.00 | 81 | 1009.9 |
| 20260506175533 | 60 | 144 | 6.1 | 15.6 | 0.00 | 0.00 | 0.00 | 100 | 1009.9 |
| 20260506175038 | 60 | 172 | 5.2 | 19.1 | 0.00 | 0.00 | 0.00 | 80 | 1010.0 |
| 20260506174545 | -50 | 185 | 7.0 | 19.1 | 0.00 | 0.00 | 0.00 | 1010.1 | |
| 20260506174034 | 61 | 207 | 5.2 | 23.5 | 0.00 | 0.00 | 0.00 | 100 | 1010.1 |
| 20260506173534 | 61 | 221 | 6.1 | 23.5 | 0.00 | 0.00 | 0.00 | 78 | 1010.2 |
| 20260506173047 | 60 | 173 | 7.0 | 20.9 | 0.00 | 0.00 | 0.00 | 78 | 1010.2 |
| 20260506172533 | -50 | 165 | 5.2 | 20.0 | 0.00 | 0.00 | 0.00 | 78 | 1010.2 |
| 20260506172038 | 60 | 190 | 7.8 | 19.1 | 0.00 | 0.00 | 0.00 | 78 | 1010.2 |
| 20260506171554 | 61 | 194 | 6.1 | 16.5 | 0.00 | 0.00 | 0.00 | 78 | 1010.3 |
| 20260506171034 | 60 | 191 | 7.8 | 24.3 | 0.00 | 0.00 | 0.00 | 78 | 1010.4 |
| 20260506170534 | 60 | 186 | 7.8 | 24.3 | 0.00 | 0.00 | 0.00 | 78 | 1010.4 |
| 20260506170053 | 60 | 146 | 6.1 | 20.9 | 0.00 | 0.00 | 0.00 | 78 | 1010.4 |
| 20260506165535 | -50 | 180 | 8.7 | 22.6 | 0.00 | 0.00 | 0.00 | 1010.5 | |
| 20260506165036 | -50 | 183 | 7.8 | 22.6 | 0.00 | 0.00 | 0.00 | 1010.4 | |
| 20260506164537 | -50 | 200 | 7.0 | 18.2 | 0.00 | 0.00 | 0.00 | 1010.7 | |
| 20260506164033 | -50 | 179 | 7.8 | 20.9 | 0.00 | 0.00 | 0.00 | 100 | 1010.7 |
| 20260506163533 | -50 | 186 | 7.8 | 20.9 | 0.00 | 0.00 | 0.00 | 1010.6 | |
| 20260506163045 | -50 | 188 | 7.8 | 20.9 | 0.00 | 0.00 | 0.00 | 1010.6 | |
| 20260506162533 | 158 | 165 | 7.8 | 15.6 | 0.00 | 0.00 | 0.00 | 1010.5 | |
| 20260506162033 | 62 | 225 | 7.8 | 17.4 | 0.00 | 0.00 | 0.00 | 76 | 1010.6 |
| 20260506161543 | 62 | 146 | 7.0 | 20.9 | 0.00 | 0.00 | 0.00 | 76 | 1010.6 |
| 20260506161034 | 62 | 184 | 8.7 | 20.9 | 0.00 | 0.00 | 0.00 | 76 | 1010.8 |
| 20260506160534 | 62 | 160 | 7.8 | 20.9 | 0.00 | 0.00 | 0.00 | 76 | 1011.0 |
| 20260506160052 | 62 | 154 | 7.0 | 20.0 | 0.00 | 0.00 | 0.00 | 77 | 1011.1 |
| 20260506155534 | 62 | 190 | 6.1 | 20.0 | 0.00 | 0.00 | 0.00 | 77 | 1011.1 |
| 20260506155033 | 61 | 171 | 7.8 | 19.1 | 0.00 | 0.00 | 0.00 | 76 | 1011.3 |
| 20260506154541 | 62 | 182 | 7.8 | 19.1 | 0.00 | 0.00 | 0.00 | 76 | 1011.1 |
| 20260506154036 | 62 | 197 | 6.1 | 19.1 | 0.00 | 0.00 | 0.00 | 76 | 1011.2 |
| 20260506153533 | -49 | 182 | 7.0 | 19.1 | 0.00 | 0.00 | 0.00 | 1011.3 | |
| 20260506153037 | -49 | 198 | 7.8 | 20.0 | 0.00 | 0.00 | 0.00 | 1011.2 | |
| 20260506152531 | -49 | 149 | 7.0 | 20.9 | 0.00 | 0.00 | 0.00 | 1011.2 | |
| 20260506152033 | -49 | 140 | 7.0 | 20.9 | 0.00 | 0.00 | 0.00 | 1011.0 | |
| 20260506151544 | -49 | 224 | 7.0 | 17.4 | 0.00 | 0.00 | 0.00 | 1011.1 | |
| 20260506151034 | -49 | 208 | 7.8 | 21.7 | 0.00 | 0.00 | 0.00 | 1011.3 | |
| 20260506150530 | -49 | 180 | 7.0 | 21.7 | 0.00 | 0.00 | 0.00 | 1011.3 | |
| 20260506150042 | 64 | 192 | 6.1 | 20.9 | 0.00 | 0.00 | 0.00 | 74 | 1011.3 |
| 20260506145531 | 64 | 190 | 7.8 | 20.9 | 0.00 | 0.00 | 0.00 | 1011.3 | |
| 20260506145033 | 64 | 224 | 8.7 | 24.3 | 0.00 | 0.00 | 0.00 | 74 | 1011.3 |
| 20260506144559 | 63 | 201 | 7.0 | 24.3 | 0.00 | 0.00 | 0.00 | 75 | 1011.3 |
| 20260506144035 | 63 | 163 | 9.6 | 22.6 | 0.00 | 0.00 | 0.00 | 75 | 1011.3 |
| 20260506143534 | 63 | 190 | 8.7 | 22.6 | 0.00 | 0.00 | 0.00 | 75 | 1011.3 |
| 20260506143038 | 63 | 202 | 9.6 | 20.9 | 0.00 | 0.00 | 0.00 | 75 | 1011.3 |
| 20260506142534 | 63 | 184 | 7.0 | 22.6 | 0.00 | 0.00 | 0.00 | 1011.6 | |
| 20260506142033 | 62 | 169 | 8.7 | 22.6 | 0.00 | 0.00 | 0.00 | 76 | 1011.6 |
| 20260506141537 | 62 | 201 | 6.1 | 20.9 | 0.00 | 0.00 | 0.00 | 76 | 1011.7 |
| 20260506141030 | 62 | 150 | 8.7 | 20.9 | 0.00 | 0.00 | 0.00 | 76 | 1011.6 |
| 20260506140534 | 62 | 180 | 6.1 | 20.0 | 0.00 | 0.00 | 0.00 | 76 | 1011.5 |
| 20260506140037 | 62 | 182 | 6.1 | 18.2 | 0.00 | 0.00 | 0.00 | 75 | 1011.6 |
| 20260506135533 | 62 | 204 | 7.0 | 18.2 | 0.00 | 0.00 | 0.00 | 1011.5 | |
| 20260506135034 | 62 | 174 | 6.1 | 20.0 | 0.00 | 0.00 | 0.00 | 76 | 1011.4 |
| 20260506134539 | 63 | 200 | 7.8 | 20.0 | 0.00 | 0.00 | 0.00 | 75 | 1011.4 |
| 20260506134032 | 63 | 185 | 7.8 | 24.3 | 0.00 | 0.00 | 0.00 | 74 | 1011.1 |
| 20260506133529 | 63 | 137 | 6.1 | 24.3 | 0.00 | 0.00 | 0.00 | 75 | 1011.3 |
| 20260506133040 | 63 | 180 | 6.1 | 22.6 | 0.00 | 0.00 | 0.00 | 75 | 1011.4 |
| 20260506132539 | 63 | 204 | 7.0 | 22.6 | 0.00 | 0.00 | 0.00 | 75 | 1011.5 |
| 20260506132033 | 63 | 201 | 6.1 | 20.9 | 0.00 | 0.00 | 0.00 | 75 | 1011.2 |
| 20260506131546 | -49 | 225 | 9.6 | 23.5 | 0.00 | 0.00 | 0.00 | 1011.2 | |
| 20260506131033 | -49 | 205 | 8.7 | 24.3 | 0.00 | 0.00 | 0.00 | 1011.4 | |
| 20260506130534 | 63 | 201 | 9.6 | 25.2 | 0.00 | 0.00 | 0.00 | 1011.4 | |
| 20260506130049 | -49 | 148 | 9.6 | 25.2 | 0.00 | 0.00 | 0.00 | 1011.6 | |
| 20260506125533 | 63 | 184 | 8.7 | 16.5 | 0.00 | 0.00 | 0.00 | 75 | 1011.6 |
| 20260506125033 | 63 | 186 | 5.2 | 16.5 | 0.00 | 0.00 | 0.00 | 76 | 1011.8 |
| 20260506124543 | 62 | 217 | 7.0 | 15.6 | 0.00 | 0.00 | 0.00 | 76 | 1011.7 |
| 20260506124033 | -49 | 192 | 6.1 | 16.5 | 0.00 | 0.00 | 0.00 | 77 | 1011.7 |
| 20260506123533 | 62 | 146 | 7.8 | 20.0 | 0.00 | 0.00 | 0.00 | 77 | 1011.7 |
| 20260506123050 | 62 | 226 | 7.8 | 22.6 | 0.00 | 0.00 | 0.00 | 78 | 1011.7 |
| 20260506122530 | 61 | 202 | 7.8 | 23.5 | 0.00 | 0.00 | 0.00 | 78 | 1011.7 |
| 20260506122033 | 61 | 215 | 6.1 | 23.5 | 0.00 | 0.00 | 0.00 | 79 | 1011.6 |
| 20260506121541 | 61 | 192 | 7.0 | 16.5 | 0.00 | 0.00 | 0.00 | 79 | 1011.6 |
| 20260506121036 | 61 | 206 | 5.2 | 16.5 | 0.00 | 0.00 | 0.00 | 80 | 1011.5 |
| 20260506120535 | 60 | 184 | 7.0 | 18.2 | 0.00 | 0.00 | 0.00 | 80 | 1011.5 |
| 20260506120053 | 60 | 148 | 7.0 | 20.0 | 0.00 | 0.00 | 0.00 | 100 | 1011.5 |
| 20260506115535 | -50 | 165 | 7.8 | 20.0 | 0.00 | 0.00 | 0.00 | 1011.5 | |
| 20260506115033 | -50 | 209 | 7.8 | 20.9 | 0.00 | 0.00 | 0.00 | 1011.5 | |
| 20260506114552 | -50 | 190 | 7.0 | 22.6 | 0.00 | 0.00 | 0.00 | 1011.5 | |
| 20260506114033 | -52 | 178 | 6.1 | 26.1 | 0.00 | 0.00 | 0.00 | 1011.5 | |
| 20260506113533 | -52 | 181 | 7.0 | 26.1 | 0.00 | 0.00 | 0.00 | 1011.5 | |
| 20260506113044 | -52 | 179 | 6.1 | 20.0 | 0.00 | 0.00 | 0.00 | 1011.6 | |
| 20260506112534 | -52 | 184 | 5.2 | 20.0 | 0.00 | 0.00 | 0.00 | 1011.5 | |
| 20260506112033 | 59 | 217 | 7.0 | 22.6 | 0.00 | 0.00 | 0.00 | 100 | 1011.5 |
| 20260506111548 | 59 | 190 | 8.7 | 22.6 | 0.00 | 0.00 | 0.00 | 82 | 1011.6 |
| 20260506111033 | 59 | 209 | 5.2 | 25.2 | 0.00 | 0.00 | 0.00 | 83 | 1011.4 |
| 20260506110533 | -52 | 221 | 7.8 | 25.2 | 0.00 | 0.00 | 0.00 | 1011.5 | |
| 20260506110048 | -54 | 173 | 7.0 | 18.2 | 0.00 | 0.00 | 0.00 | 1011.4 | |
| 20260506105531 | -54 | 194 | 7.0 | 15.6 | 0.00 | 0.00 | 0.00 | 1011.5 | |
| 20260506105030 | 58 | 194 | 6.1 | 16.5 | 0.00 | 0.00 | 0.00 | 100 | 1011.5 |
| 20260506104548 | -54 | 178 | 7.0 | 16.5 | 0.00 | 0.00 | 0.00 | 100 | 1011.6 |
| 20260506104033 | 57 | 194 | 5.2 | 18.2 | 0.00 | 0.00 | 0.00 | 84 | 1011.4 |
| 20260506103533 | 57 | 186 | 7.0 | 18.2 | 0.00 | 0.00 | 0.00 | 84 | 1011.4 |
| 20260506103053 | -56 | 201 | 7.0 | 17.4 | 0.00 | 0.00 | 0.00 | 84 | 1011.5 |
| 20260506102536 | 57 | 198 | 6.1 | 14.8 | 0.00 | 0.00 | 0.00 | 84 | 1011.3 |
| 20260506102034 | 57 | 217 | 6.1 | 14.8 | 0.00 | 0.00 | 0.00 | 1011.3 | |
| 20260506101538 | 57 | 204 | 5.2 | 20.0 | 0.00 | 0.00 | 0.00 | 84 | 1011.4 |
| 20260506101034 | 57 | 190 | 7.0 | 20.9 | 0.00 | 0.00 | 0.00 | 84 | 1011.3 |
| 20260506100533 | 57 | 192 | 7.0 | 20.9 | 0.00 | 0.00 | 0.00 | 84 | 1011.4 |
| 20260506095533 | 57 | 189 | 6.1 | 17.4 | 0.00 | 0.00 | 0.00 | 84 | 1011.3 |
| 20260506095033 | 57 | 152 | 7.0 | 17.4 | 0.00 | 0.00 | 0.00 | 84 | 1011.1 |
| 20260506094539 | 58 | 190 | 6.1 | 19.1 | 0.00 | 0.00 | 0.00 | 83 | 1011.2 |
| 20260506094032 | 58 | 134 | 7.0 | 22.6 | 0.00 | 0.00 | 0.00 | 83 | 1011.3 |
| 20260506093530 | 58 | 178 | 7.0 | 22.6 | 0.00 | 0.00 | 0.00 | 83 | 1011.3 |
| 20260506093040 | 58 | 193 | 8.7 | 19.1 | 0.00 | 0.00 | 0.00 | 83 | 1011.4 |
| 20260506092533 | 58 | 178 | 7.0 | 15.6 | 0.00 | 0.00 | 0.00 | 100 | 1011.4 |
| 20260506092030 | 58 | 178 | 6.1 | 20.0 | 0.00 | 0.00 | 0.00 | 83 | 1011.3 |
| 20260506091538 | 58 | 180 | 6.1 | 20.0 | 0.00 | 0.00 | 0.00 | 83 | 1011.4 |
| 20260506091033 | 58 | 142 | 8.7 | 23.5 | 0.00 | 0.00 | 0.00 | 83 | 1011.3 |
| 20260506090532 | 58 | 198 | 7.8 | 25.2 | 0.00 | 0.00 | 0.00 | 1011.3 | |
| 20260506090037 | 58 | 184 | 9.6 | 25.2 | 0.00 | 0.00 | 0.00 | 83 | 1011.5 |
| 20260506085533 | 58 | 213 | 8.7 | 20.0 | 0.00 | 0.00 | 0.00 | 83 | 1011.5 |
| 20260506085033 | 58 | 185 | 7.8 | 22.6 | 0.00 | 0.00 | 0.00 | 83 | 1011.5 |
| 20260506084541 | 58 | 177 | 7.0 | 22.6 | 0.00 | 0.00 | 0.00 | 83 | 1011.5 |
| 20260506084033 | 58 | 188 | 6.1 | 18.2 | 0.00 | 0.00 | 0.00 | 83 | 1011.6 |
| 20260506083533 | 58 | 227 | 7.0 | 20.9 | 0.00 | 0.00 | 0.00 | 1011.7 | |
| 20260506083045 | -54 | 159 | 6.1 | 20.9 | 0.00 | 0.00 | 0.00 | 1011.6 | |
| 20260506082533 | -54 | 190 | 7.0 | 19.1 | 0.00 | 0.00 | 0.00 | 1011.6 | |
| 20260506082033 | -54 | 148 | 6.1 | 19.1 | 0.00 | 0.00 | 0.00 | 1011.7 | |
| 20260506081543 | -54 | 195 | 7.8 | 18.2 | 0.00 | 0.00 | 0.00 | 1011.7 | |
| 20260506081030 | -54 | 172 | 7.0 | 19.1 | 0.00 | 0.00 | 0.00 | 1011.7 | |
| 20260506080530 | -54 | 188 | 8.7 | 19.1 | 0.00 | 0.00 | 0.00 | 1011.7 | |
| 20260506073038 | -52 | 191 | 7.0 | 23.5 | 0.00 | 0.00 | 0.00 | 1011.9 | |
| 20260506072533 | 59 | 186 | 9.6 | 22.6 | 0.00 | 0.00 | 0.00 | 80 | 1011.8 |
| 20260506072033 | 59 | 168 | 7.8 | 19.1 | 0.00 | 0.00 | 0.00 | 80 | 1011.8 |
| 20260506071549 | 59 | 188 | 7.0 | 26.1 | 0.00 | 0.00 | 0.00 | 80 | 1012.0 |
| 20260506071033 | 59 | 198 | 6.1 | 26.1 | 0.00 | 0.00 | 0.00 | 80 | 1011.9 |
| 20260506070534 | 59 | 190 | 10.4 | 24.3 | 0.00 | 0.00 | 0.00 | 80 | 1011.8 |
| 20260506062035 | 59 | 202 | 7.8 | 19.1 | 0.00 | 0.00 | 0.00 | 80 | 1012.0 |
| 20260506061537 | 59 | 189 | 7.8 | 20.9 | 0.00 | 0.00 | 0.00 | 80 | 1011.9 |
| 20260506061031 | 59 | 195 | 7.8 | 20.9 | 0.00 | 0.00 | 0.00 | 80 | 1011.9 |
| 20260506060532 | -52 | 259 | 7.8 | 20.9 | 0.00 | 0.00 | 0.00 | 100 | 1011.9 |
| 20260506051033 | -54 | 198 | 5.2 | 17.4 | 0.00 | 0.00 | 0.00 | 1012.4 | |
| 20260506050530 | -52 | 190 | 7.8 | 18.2 | 0.00 | 0.00 | 0.00 | 1012.3 | |
| 20260506045032 | 59 | 225 | 7.0 | 21.7 | 0.00 | 0.00 | 0.00 | 79 | 1012.3 |
| 20260506044546 | 59 | 186 | 7.8 | 21.7 | 0.00 | 0.00 | 0.00 | 79 | 1012.3 |
| 20260506044031 | 59 | 173 | 7.0 | 16.5 | 0.00 | 0.00 | 0.00 | 78 | 1012.2 |
| 20260506043530 | 60 | 157 | 7.8 | 20.0 | 0.00 | 0.00 | 0.00 | 78 | 1012.3 |
| 20260506043039 | 60 | 198 | 7.0 | 20.0 | 0.00 | 0.00 | 0.00 | 78 | 1012.2 |
| 20260506042531 | 60 | 178 | 6.1 | 19.1 | 0.00 | 0.00 | 0.00 | 100 | 1012.4 |
| 20260506042031 | -50 | 170 | 7.8 | 21.7 | 0.00 | 0.00 | 0.00 | 1012.4 | |
| 20260506041539 | -50 | 167 | 7.8 | 22.6 | 0.00 | 0.00 | 0.00 | 1012.3 | |
| 20260506041032 | -50 | 182 | 9.6 | 26.9 | 0.00 | 0.00 | 0.00 | 1012.4 | |
| 20260506040530 | 60 | 184 | 7.8 | 26.9 | 0.00 | 0.00 | 0.00 | 76 | 1012.4 |
| 20260506040039 | 60 | 202 | 9.6 | 25.2 | 0.00 | 0.00 | 0.00 | 76 | 1012.4 |
| 20260506035533 | 60 | 183 | 8.7 | 23.5 | 0.00 | 0.00 | 0.00 | 76 | 1012.5 |
| 20260506035034 | 60 | 239 | 8.7 | 23.5 | 0.00 | 0.00 | 0.00 | 76 | 1012.3 |
| 20260506034539 | 60 | 189 | 7.8 | 19.1 | 0.00 | 0.00 | 0.00 | 75 | 1012.4 |
| 20260506034030 | 60 | 214 | 7.0 | 19.1 | 0.00 | 0.00 | 0.00 | 75 | 1012.4 |
| 20260506033531 | 60 | 175 | 8.7 | 22.6 | 0.00 | 0.00 | 0.00 | 75 | 1012.4 |
| 20260506033043 | 60 | 198 | 7.8 | 22.6 | 0.00 | 0.00 | 0.00 | 75 | 1012.4 |
| 20260506032530 | 60 | 185 | 8.7 | 25.2 | 0.00 | 0.00 | 0.00 | 75 | 1012.7 |
| 20260506032031 | 60 | 173 | 7.0 | 25.2 | 0.00 | 0.00 | 0.00 | 75 | 1012.4 |
| 20260506031539 | 61 | 211 | 7.0 | 19.1 | 0.00 | 0.00 | 0.00 | 75 | 1012.5 |
| 20260506031034 | 61 | 206 | 7.8 | 19.1 | 0.00 | 0.00 | 0.00 | 75 | 1012.4 |
| 20260506030532 | 61 | 190 | 8.7 | 19.1 | 0.00 | 0.00 | 0.00 | 75 | 1012.5 |
| 20260506030056 | 61 | 182 | 7.0 | 19.1 | 0.00 | 0.00 | 0.00 | 74 | 1012.5 |
| 20260506025530 | 61 | 182 | 7.8 | 26.9 | 0.00 | 0.00 | 0.00 | 74 | 1012.4 |
| 20260506025034 | 61 | 196 | 8.7 | 26.9 | 0.00 | 0.00 | 0.00 | 74 | 1012.3 |
| 20260506024550 | 61 | 211 | 7.8 | 24.3 | 0.00 | 0.00 | 0.00 | 74 | 1012.4 |
| 20260506024031 | 61 | 187 | 7.8 | 27.8 | 0.00 | 0.00 | 0.00 | 73 | 1012.3 |
| 20260506023531 | 61 | 201 | 8.7 | 27.8 | 0.00 | 0.00 | 0.00 | 73 | 1012.5 |
| 20260506023036 | 61 | 193 | 7.8 | 21.7 | 0.00 | 0.00 | 0.00 | 73 | 1012.5 |
| 20260506022530 | 61 | 222 | 7.0 | 22.6 | 0.00 | 0.00 | 0.00 | 73 | 1012.3 |
| 20260506022030 | 61 | 166 | 8.7 | 22.6 | 0.00 | 0.00 | 0.00 | 73 | 1012.3 |
| 20260506021540 | 61 | 224 | 6.1 | 23.5 | 0.00 | 0.00 | 0.00 | 73 | 1012.3 |
| 20260506021030 | 61 | 189 | 7.0 | 23.5 | 0.00 | 0.00 | 0.00 | 73 | 1012.3 |
| 20260506020534 | 62 | 202 | 7.0 | 23.5 | 0.00 | 0.00 | 0.00 | 72 | 1012.4 |
| 20260506020039 | 62 | 233 | 9.6 | 23.5 | 0.00 | 0.00 | 0.00 | 72 | 1012.3 |
| 20260506015531 | 62 | 167 | 7.0 | 23.5 | 0.00 | 0.00 | 0.00 | 72 | 1012.4 |
| 20260506015033 | 62 | 217 | 10.4 | 23.5 | 0.00 | 0.00 | 0.00 | 72 | 1012.3 |
| 20260506014552 | 62 | 211 | 8.7 | 24.3 | 0.00 | 0.00 | 0.00 | 72 | 1012.2 |
| 20260506014030 | 62 | 246 | 7.8 | 25.2 | 0.00 | 0.00 | 0.00 | 72 | 1012.2 |
| 20260506013531 | 62 | 200 | 9.6 | 25.2 | 0.00 | 0.00 | 0.00 | 72 | 1011.9 |
| 20260506013037 | 62 | 186 | 7.8 | 26.1 | 0.00 | 0.00 | 0.00 | 72 | 1012.1 |
| 20260506012531 | 62 | 186 | 9.6 | 26.1 | 0.00 | 0.00 | 0.00 | 72 | 1012.0 |
| 20260506012032 | 62 | 226 | 9.6 | 27.8 | 0.00 | 0.00 | 0.00 | 72 | 1012.1 |
| 20260506011541 | 62 | 217 | 10.4 | 27.8 | 0.00 | 0.00 | 0.00 | 72 | 1012.0 |
| 20260506011035 | 62 | 156 | 10.4 | 20.9 | 0.00 | 0.00 | 0.00 | 72 | 1011.8 |
| 20260506010531 | 62 | 164 | 9.6 | 27.8 | 0.00 | 0.00 | 0.00 | 72 | 1011.8 |
| 20260506010049 | 62 | 186 | 11.3 | 27.8 | 0.00 | 0.00 | 0.00 | 72 | 1011.8 |
| 20260506005531 | 61 | 193 | 9.6 | 22.6 | 0.00 | 0.00 | 0.00 | 72 | 1011.6 |
| 20260506005030 | 61 | 190 | 10.4 | 20.9 | 0.00 | 0.00 | 0.00 | 72 | 1011.6 |
| 20260506004548 | 62 | 206 | 7.8 | 20.9 | 0.00 | 0.00 | 0.00 | 72 | 1011.5 |
| 20260506004030 | 62 | 197 | 8.7 | 20.9 | 0.00 | 0.00 | 0.00 | 72 | 1011.4 |
| 20260506003531 | 62 | 187 | 7.8 | 21.7 | 0.00 | 0.00 | 0.00 | 72 | 1011.4 |
| 20260506003043 | 62 | 234 | 7.8 | 23.5 | 0.00 | 0.00 | 0.00 | 72 | 1011.4 |
| 20260506002530 | 62 | 211 | 9.6 | 23.5 | 0.00 | 0.00 | 0.00 | 72 | 1011.2 |
| 20260506002031 | 62 | 180 | 7.8 | 23.5 | 0.00 | 0.00 | 0.00 | 72 | 1011.2 |
| 20260506001546 | 62 | 202 | 7.8 | 24.3 | 0.00 | 0.00 | 0.00 | 72 | 1010.9 |
| 20260506001031 | 62 | 176 | 8.7 | 26.1 | 0.00 | 0.00 | 0.00 | 72 | 1010.8 |
| 20260506000531 | 61 | 219 | 8.7 | 26.1 | 0.00 | 0.00 | 0.00 | 72 | 1010.9 |
| 20260506000042 | 61 | 178 | 8.7 | 22.6 | 0.00 | 0.00 | 0.00 | 73 | 1010.8 |
| 20260505235530 | 61 | 165 | 9.6 | 19.1 | 0.00 | 0.00 | 0.00 | 73 | 1010.7 |
| 20260505235031 | 61 | 148 | 6.1 | 18.2 | 0.00 | 0.00 | 0.00 | 73 | 1010.8 |
| 20260505234539 | 61 | 193 | 7.8 | 19.1 | 0.00 | 0.00 | 0.00 | 72 | 1010.7 |
| 20260505234033 | 61 | 209 | 7.8 | 19.1 | 0.00 | 0.00 | 0.00 | 72 | 1010.6 |
| 20260505233530 | 62 | 208 | 7.0 | 19.1 | 0.00 | 0.00 | 0.00 | 72 | 1010.5 |
| 20260505233044 | 62 | 184 | 8.7 | 23.5 | 0.00 | 0.00 | 0.00 | 72 | 1010.5 |
| 20260505232530 | 62 | 199 | 9.6 | 23.5 | 0.00 | 0.00 | 0.00 | 72 | 1010.4 |
| 20260505232030 | 62 | 190 | 7.8 | 23.5 | 0.00 | 0.00 | 0.00 | 72 | 1010.4 |
| 20260505231544 | 62 | 202 | 7.0 | 21.7 | 0.00 | 0.00 | 0.00 | 72 | 1010.5 |
| 20260505231031 | 62 | 193 | 8.7 | 25.2 | 0.00 | 0.00 | 0.00 | 72 | 1010.3 |
| 20260505230530 | 62 | 192 | 7.8 | 25.2 | 0.00 | 0.00 | 0.00 | 72 | 1010.3 |
| 20260505230048 | 62 | 205 | 10.4 | 25.2 | 0.00 | 0.00 | 0.00 | 72 | 1010.2 |
| 20260505225530 | 62 | 193 | 7.0 | 25.2 | 0.00 | 0.00 | 0.00 | 72 | 1010.2 |
| 20260505225033 | 62 | 182 | 8.7 | 25.2 | 0.00 | 0.00 | 0.00 | 72 | 1010.2 |
| 20260505224550 | 62 | 190 | 8.7 | 23.5 | 0.00 | 0.00 | 0.00 | 72 | 1010.1 |
| 20260505224031 | 62 | 192 | 7.0 | 20.0 | 0.00 | 0.00 | 0.00 | 72 | 1010.0 |
| 20260505223530 | 62 | 236 | 7.0 | 20.0 | 0.00 | 0.00 | 0.00 | 72 | 1010.2 |
| 20260505223050 | 62 | 195 | 7.0 | 21.7 | 0.00 | 0.00 | 0.00 | 72 | 1010.1 |
| 20260505222531 | 62 | 198 | 6.1 | 21.7 | 0.00 | 0.00 | 0.00 | 72 | 1010.0 |
| 20260505222033 | 62 | 189 | 7.0 | 21.7 | 0.00 | 0.00 | 0.00 | 72 | 1009.9 |
| 20260505221545 | 62 | 242 | 8.7 | 21.7 | 0.00 | 0.00 | 0.00 | 72 | 1009.8 |
| 20260505221031 | 62 | 169 | 7.0 | 20.0 | 0.00 | 0.00 | 0.00 | 72 | 1009.8 |
| 20260505220532 | 62 | 196 | 7.8 | 20.0 | 0.00 | 0.00 | 0.00 | 72 | 1009.8 |
| 20260505220045 | 62 | 229 | 7.0 | 17.4 | 0.00 | 0.00 | 0.00 | 72 | 1009.7 |
| 20260505215530 | 62 | 137 | 7.8 | 17.4 | 0.00 | 0.00 | 0.00 | 72 | 1009.7 |
| 20260505215030 | 62 | 157 | 7.0 | 19.1 | 0.00 | 0.00 | 0.00 | 72 | 1009.8 |
| 20260505214540 | 62 | 190 | 8.7 | 20.0 | 0.00 | 0.00 | 0.00 | 72 | 1009.8 |
| 20260505214029 | 62 | 184 | 6.1 | 21.7 | 0.00 | 0.00 | 0.00 | 72 | 1009.8 |
| 20260505213534 | 61 | 198 | 7.0 | 21.7 | 0.00 | 0.00 | 0.00 | 72 | 1009.9 |
| 20260505213045 | 62 | 174 | 7.0 | 15.6 | 0.00 | 0.00 | 0.00 | 72 | 1009.7 |
| 20260505212533 | -50 | 155 | 6.1 | 20.9 | 0.00 | 0.00 | 0.00 | 1009.7 | |
| 20260505212030 | 62 | 175 | 7.0 | 20.9 | 0.00 | 0.00 | 0.00 | 72 | 1009.7 |
| 20260505211545 | 62 | 175 | 6.1 | 14.8 | 0.00 | 0.00 | 0.00 | 72 | 1009.6 |
| 20260505211032 | 62 | 190 | 6.1 | 14.8 | 0.00 | 0.00 | 0.00 | 72 | 1009.5 |
| 20260505210530 | 62 | 184 | 6.1 | 14.8 | 0.00 | 0.00 | 0.00 | 72 | 1009.7 |
| 20260505210045 | 63 | 161 | 6.1 | 13.9 | 0.00 | 0.00 | 0.00 | 71 | 1009.5 |
| 20260505205534 | 63 | 142 | 7.0 | 18.2 | 0.00 | 0.00 | 0.00 | 71 | 1009.6 |
| 20260505205030 | 63 | 171 | 7.8 | 18.2 | 0.00 | 0.00 | 0.00 | 71 | 1009.7 |
| 20260505204540 | 63 | 209 | 5.2 | 18.2 | 0.00 | 0.00 | 0.00 | 72 | 1009.5 |
| 20260505204034 | 63 | 161 | 7.8 | 18.2 | 0.00 | 0.00 | 0.00 | 71 | 1009.5 |
| 20260505203530 | 63 | 202 | 6.1 | 18.2 | 0.00 | 0.00 | 0.00 | 71 | 1009.5 |
| 20260505203044 | 63 | 164 | 7.0 | 19.1 | 0.00 | 0.00 | 0.00 | 1009.5 | |
| 20260505202529 | -49 | 179 | 7.8 | 19.1 | 0.00 | 0.00 | 0.00 | 91 | 1009.6 |